Аэропорт: Николаев. Николаев

ICAO: UKON

METAR:
2018/07/22 14:00
UKON 221400Z 24003MPS 190V310 9999 SCT///CB 29/14 Q1006 NOSIG
METAR:
2010/06/02 12:21
TAF 
      AMD TAF 
      AMD UKON 021221Z 0212/0224 12007G14MPS 9999 BKN010 BKN020CB 
      TEMPO 0212/0221 VRB10G19MPS 3100 -TSRAGR SQ SCT005 BKN015CB PROB40 
      TEMPO 0212/0221 0600 +SHRA BKN002 BKN015CB TX30/0212Z TN22/0221Z